Weather History for Hill City, KS

Change the Weather History Date:

Saturday, June 15, 2013

  Actual Average Record
Temperature  
Mean Temperature 82 °F 73 °F  
Max Temperature 95 °F 86 °F 113 °F (1946)
Min Temperature 68 °F 60 °F 40 °F (1989)
Cooling Degree Days 16    
Growing Degree Days 30 (Base 50)    
Moisture  
Dew Point 62 °F    
Average Humidity 60    
Maximum Humidity 90    
Minimum Humidity 33    
Precipitation  
Precipitation 0.00 in 0.08 in 1.36 in (2004)
Month to date precipitation 1.13 1.47  
Year to date precipitation 5.47 9.97  
Sea Level Pressure  
Sea Level Pressure 29.85 in    
Wind  
Wind Speed 5 mph (South)    
Max Wind Speed 13 mph    
Max Gust Speed -    
Visibility 10 miles    
Events      
T = Trace of Precipitation, MM = Missing Value Source: NWS Daily Summary

Daily Weather History Graph

Daily Weather History Graph

Search for Another Location

Airport:

Trip Planner

Search our weather history database for the weather conditions in past years. The results will help you decide how hot, cold, wet, or windy it might be!

Date:

Astronomy

Jun. 15, 2013 Rise Set
Actual Time 6:11 AM CDT 9:07 PM CDT
Civil Twilight 5:39 AM CDT 9:40 PM CDT
Nautical Twilight 4:58 AM CDT 10:21 PM CDT
Astronomical Twilight 4:11 AM CDT 11:08 PM CDT
Moon 12:46 PM CDT (6/15) 12:46 AM CDT (6/15)
Length of Visible Light 16h 00m
Length of Day
14h 56m
Waxing Crescent, 40% of the Moon is Illuminated
Jun 15
Waxing Crescent
Jun 16
First Quarter
Jun 23
Full
Jun 29
Last Quarter
Jul 8
New

Hourly Weather History & Observations

Time (CDT) Temp. Heat Index Dew Point Humidity Pressure Visibility Wind Dir Wind Speed Gust Speed Precip Events Conditions
12:53 AM 68.0 °F - 57.0 °F 68% 29.81 in 10.0 mi Calm Calm - N/A   Clear
1:53 AM 71.1 °F - 55.0 °F 57% 29.81 in 10.0 mi SSW 5.8 mph - N/A   Clear
2:53 AM 71.1 °F - 53.1 °F 53% 29.81 in 10.0 mi SW 8.1 mph - N/A   Clear
3:53 AM 71.1 °F - 53.1 °F 53% 29.81 in 10.0 mi WSW 5.8 mph - N/A   Clear
4:53 AM 69.1 °F - 53.1 °F 57% 29.84 in 10.0 mi Variable 3.5 mph - N/A   Clear
5:53 AM 70.0 °F - 57.0 °F 63% 29.85 in 10.0 mi WSW 5.8 mph - N/A   Clear
6:53 AM 70.0 °F - 59.0 °F 68% 29.86 in 10.0 mi SW 4.6 mph - N/A   Clear
7:53 AM 72.0 °F - 62.1 °F 71% 29.86 in 10.0 mi SSW 5.8 mph - N/A   Clear
8:53 AM 69.1 °F - 66.0 °F 90% 29.89 in 10.0 mi South 6.9 mph - N/A   Overcast
9:44 AM 69.8 °F - 66.2 °F 88% 29.96 in 10.0 mi South 5.8 mph - N/A   Overcast
9:53 AM 71.1 °F - 66.0 °F 84% 29.89 in 10.0 mi SSE 5.8 mph - N/A   Overcast
10:28 AM 75.2 °F - 66.2 °F 73% 29.95 in 10.0 mi SSW 8.1 mph - N/A   Mostly Cloudy
10:44 AM 75.2 °F - 66.2 °F 73% 29.95 in 10.0 mi SSW 5.8 mph - N/A   Mostly Cloudy
10:53 AM 75.0 °F - 66.0 °F 73% 29.88 in 10.0 mi SW 4.6 mph - N/A   Mostly Cloudy
11:28 AM 78.8 °F - 66.2 °F 65% 29.94 in 10.0 mi SSW 10.4 mph - N/A   Scattered Clouds
11:53 AM 81.0 °F 83.0 °F 66.0 °F 60% 29.86 in 10.0 mi South 10.4 mph - N/A   Partly Cloudy
12:53 PM 82.9 °F 85.0 °F 66.0 °F 56% 29.86 in 10.0 mi South 5.8 mph - N/A   Mostly Cloudy
1:53 PM 88.0 °F 89.6 °F 64.9 °F 46% 29.83 in 10.0 mi Calm Calm - N/A   Clear
2:53 PM 91.0 °F 91.9 °F 63.0 °F 39% 29.81 in 10.0 mi WNW 8.1 mph - N/A   Clear
3:53 PM 90.0 °F 90.0 °F 61.0 °F 38% 29.79 in 10.0 mi Calm Calm - N/A   Scattered Clouds
4:53 PM 93.0 °F 92.7 °F 60.1 °F 33% 29.78 in 10.0 mi Variable 3.5 mph - N/A   Clear
5:53 PM 91.9 °F 91.2 °F 59.0 °F 33% 29.77 in 10.0 mi Calm Calm - N/A   Clear
6:53 PM 91.9 °F 92.9 °F 63.0 °F 38% 29.76 in 10.0 mi ENE 12.7 mph - N/A   Clear
7:53 PM 89.1 °F 91.3 °F 66.0 °F 46% 29.76 in 10.0 mi East 11.5 mph - N/A   Clear
8:53 PM 82.9 °F 84.0 °F 63.0 °F 51% 29.81 in 10.0 mi NE 6.9 mph - N/A   Clear
9:53 PM 79.0 °F - 68.0 °F 69% 29.86 in 10.0 mi East 11.5 mph - N/A   Clear
10:53 PM 78.1 °F - 68.0 °F 71% 29.87 in 10.0 mi ENE 10.4 mph - N/A   Overcast
11:53 PM 75.9 °F - 68.0 °F 76% 29.91 in 10.0 mi ENE 6.9 mph - N/A   Clear